Flag for Poland Weather past 2 weeks in Elbląg, Poland

Now
51 °F

Overcast.


Feels Like: 50 °F
Forecast: 40 / 62 °F
Wind: 3 mph from South

Location: Hel


UV Index: 3 (Moderate)

Visibility: 16 mi


Pressure: 30.04 "Hg

Humidity: 58%

Dew point: 37 °F

Location of ElblągLocation

Historic Weather in Elbląg

°F

Elbląg temperature yesterday

Maximum temperature yesterday: 48 °F (at 1:00 PM)
Minimum temperature yesterday: 33 °F (at 11:00 PM)
Average temperature yesterday: 42 °F

Past Weeks' High & Low Weather Summary

 TemperatureHumidityPressure
High63 °F (Apr 8, 3:00 PM)99% (Apr 11, 8:00 AM)30.42 "Hg (Apr 11, 8:00 AM)
Low31 °F (Apr 11, 4:00 AM)35% (Apr 16, 5:00 PM)29.55 "Hg (Apr 14, 4:00 PM)
Average44 °F81%29.98 "Hg
* Reported Apr 2 6:00 PM — Apr 17 6:00 PM, Elbląg, Weather by CustomWeather, © 2014

Note: Actual official high and low records may vary slightly from our data, if they occured in-between our weather recording intervals... More about our weather records

Advertising

Historic Weather Conditions — Data for Previous 24 hours

 ConditionsComfort  
Time TempWeatherWind HumidityBarometerVisibility
6:00 PM
Apr 17
51 °FOvercast.3 mph58%30.04 "Hg16 mi
5:00 PM51 °FOvercast.3 mph57%30.07 "Hg16 mi
4:00 PM53 °FOvercast.5 mph46%30.12 "Hg16 mi
3:00 PM54 °FPartly sunny.5 mph42%30.16 "Hg16 mi
2:00 PM53 °FPartly sunny.3 mph46%30.19 "Hg16 mi
1:00 PM52 °FPartly sunny.3 mph52%30.22 "Hg16 mi
12:00 PM51 °FPartly sunny.5 mph51%30.25 "Hg16 mi
11:00 AM49 °FPartly sunny.3 mph55%30.29 "Hg12 mi
10:00 AM45 °FPartly sunny.3 mph62%30.30 "Hg12 mi
9:00 AM43 °FPartly sunny.2 mph62%30.32 "Hg12 mi
8:00 AM40 °FPartly sunny.3 mph65%30.33 "Hg12 mi
7:00 AM38 °FScattered clouds.2 mph73%30.34 "Hg12 mi
6:00 AM35 °FPassing clouds.2 mph80%30.34 "Hg12 mi
5:00 AM33 °FClear.2 mph91%30.35 "Hg12 mi
4:00 AM33 °FClear.2 mph93%30.37 "Hg12 mi
3:00 AM32 °FClear.2 mph92%30.38 "Hg11 mi
2:00 AM33 °FClear.2 mph92%30.38 "Hg12 mi
1:00 AM33 °FClear.2 mph92%30.40 "Hg16 mi
12:00 AM33 °FClear.2 mph89%30.40 "Hg11 mi
11:00 PM
Apr 16
33 °FFog.2 mph89%30.40 "Hg5 mi
Weather by CustomWeather, © 2014

See weather overview